RH
9 8 7 8 7 7 6 6 5 5 5 4 5 5 4 5 4 4 4 5 7 8 7 6 6 6 6 6 8 12 15 18 19 21 17 17 17 18 19 28 98 97 96 51
8 7 7 7 6 6 6 6 6 6 5 5 6 5 5 5 5 5 4 5 7 9 8 6 7 6 6 6 8 10 13 16 18 22 21 17 17 18 19 20 28 100 100 98
8 6 7 8 6 6 6 6 6 6 5 6 6 5 6 6 5 5 5 5 7 10 10 8 7 8 8 8 9 11 14 16 18 20 24 21 18 19 19 19 21 32 100 100
8 6 7 6 6 6 6 6 6 6 6 6 6 6 6 6 6 6 6 7 9 11 11 9 8 8 9 9 9 10 12 16 18 19 22 23 21 18 19 19 19 21 43 100
7 6 6 8 6 7 7 7 8 7 7 7 7 6 7 7 7 7 7 8 10 13 12 10 9 9 9 10 9 11 12 13 17 18 19 20 22 20 20 20 19 20 21 54
7 7 8 9 8 10 10 10 10 9 9 9 8 7 7 7 8 8 8 9 11 14 14 12 10 11 11 10 10 11 12 14 16 18 19 20 22 21 20 20 20 22 22 23
8 9 11 10 10 12 12 11 11 11 10 10 10 9 8 8 9 9 10 11 13 15 15 13 11 11 11 11 12 12 12 13 17 20 22 23 23 22 21 21 20 24 20 21
10 11 12 10 11 12 12 12 12 12 11 10 11 11 10 9 9 10 11 12 15 17 16 14 12 12 11 11 12 13 14 15 16 18 23 27 26 23 22 21 21 24 20 20
11 12 12 12 11 12 12 12 13 12 12 11 12 13 14 10 10 12 12 14 15 19 18 17 14 13 13 12 12 12 15 17 20 24 26 29 32 28 24 25 27 25 24 24
12 11 12 11 11 12 14 13 14 14 14 13 13 13 16 15 12 12 13 15 17 21 22 20 17 15 14 14 13 12 15 24 26 25 30 33 36 37 33 29 30 29 27 28
10 10 10 10 11 11 13 13 13 14 14 14 14 14 16 18 14 13 14 16 18 19 24 23 19 17 16 19 21 19 16 22 32 36 32 32 36 43 41 38 38 35 30 31
7 8 8 8 8 9 10 11 12 12 14 14 14 14 15 18 18 16 15 16 17 19 20 22 22 19 19 21 24 27 27 25 26 37 39 39 41 38 39 40 38 41 38 32
7 8 8 8 8 8 8 9 10 10 12 13 14 14 13 17 18 16 15 15 17 17 19 22 23 22 20 22 30 30 36 43 30 30 35 39 43 40 37 43 42 41 40 36
9 10 10 10 10 9 9 8 8 9 10 12 12 14 13 14 16 16 14 15 15 17 19 20 22 23 24 24 28 30 30 49 50 46 45 40 43 44 46 42 47 45 42 38
10 10 10 11 12 12 11 9 8 9 9 10 12 12 13 14 15 15 14 12 14 16 16 18 18 22 22 23 26 23 26 32 40 58 58 49 56 58 50 49 48 49 48 43
9 9 9 10 11 11 10 8 8 8 9 9 11 11 11 12 14 14 14 13 12 12 14 17 17 21 24 21 22 21 21 24 28 37 51 49 58 58 54 46 43 45 50 54
8 8 8 8 8 8 8 8 8 8 9 10 10 11 12 11 12 14 13 12 13 12 13 14 16 18 20 21 20 20 18 18 21 25 29 38 43 51 62 55 45 40 40 45
9 9 8 8 8 8 8 8 8 8 9 9 10 11 12 12 12 12 14 12 11 12 12 12 13 15 15 19 22 20 18 16 16 16 19 22 32 35 47 60 59 57 52 49
9 9 9 9 9 9 9 9 9 9 9 9 9 9 11 11 11 11 13 13 11 11 12 12 13 13 14 15 18 21 21 18 15 14 16 17 20 27 30 44 61 59 58 56
9 9 9 8 8 9 9 9 9 9 9 9 10 9 9 10 10 10 11 13 13 10 10 11 12 13 13 13 15 18 22 22 19 16 14 15 15 16 23 31 42 64 63 57
9 10 9 8 8 8 8 8 8 8 8 9 9 9 9 9 9 10 9 10 12 13 11 10 10 11 12 13 13 14 17 20 21 21 18 16 14 15 16 20 32 44 62 66
9 9 9 8 7 7 8 8 8 8 8 8 8 8 8 8 8 8 9 9 9 10 12 11 10 9 10 12 12 13 14 15 18 20 20 19 18 16 15 16 17 23 30 45
10 9 9 8 7 7 8 8 8 8 8 8 8 8 8 8 8 8 7 8 8 8 8 10 11 10 9 10 10 11 12 13 14 16 18 19 20 20 19 17 16 17 17 20
9 9 9 9 8 7 7 7 8 8 9 9 9 9 10 9 8 8 8 8 8 8 8 8 8 9 10 11 9 9 10 11 12 12 14 15 17 19 20 21 21 19 17 17
8 8 8 9 9 8 8 7 7 7 8 8 8 8 9 9 9 9 9 8 8 8 8 8 7 7 8 9 10 10 9 9 9 10 12 12 13 14 15 16 18 21 22 20
7 7 7 7 7 7 7 8 8 8 7 6 6 7 7 7 7 7 7 8 8 7 7 8 8 8 8 8 8 8 10 10 10 10 9 9 10 11 12 13 13 14 16 18
7 7 7 7 7 7 7 6 6 7 7 7 6 6 6 6 7 7 6 7 7 7 6 6 6 6 7 7 8 8 8 8 8 9 10 10 10 10 10 10 10 11 12 12
Wind_Speed
75 72 69 67 64 63 64 62 58 58 57 57 56 54 53 54 58 62 63 67 68 70 74 79 84 90 94 104 112 120 128 131 129 130 129 128 129 127 127 126 125 120 114 110
69 68 62 62 62 56 55 55 52 51 51 50 49 51 49 52 55 57 58 62 65 67 70 75 81 86 92 99 106 111 124 129 131 131 130 127 127 127 126 124 124 122 115 111
65 62 56 57 53 52 49 47 46 46 45 45 44 46 45 48 51 54 55 58 63 66 69 74 79 82 88 95 100 105 115 126 134 136 134 130 127 127 125 125 122 123 120 113
58 56 51 52 49 47 45 43 42 41 40 40 41 41 43 46 48 51 53 57 63 66 69 73 77 80 85 91 99 102 108 120 127 134 135 134 131 126 125 124 124 123 123 118
52 51 44 47 43 41 40 40 39 38 38 37 37 37 41 44 46 49 53 58 62 66 69 71 74 77 81 86 92 96 107 113 123 128 134 134 131 126 127 126 123 123 122 122
48 45 41 46 40 39 39 41 38 38 37 36 36 34 39 43 47 50 54 58 63 66 68 70 73 76 81 85 89 94 100 110 117 122 128 130 131 130 126 126 122 124 126 121
45 40 40 40 37 34 35 35 34 36 35 35 35 34 38 43 47 50 54 59 62 65 68 70 73 76 79 83 88 92 97 100 108 113 118 125 129 130 128 126 124 127 124 121
40 38 36 37 32 32 32 31 33 33 33 34 35 35 38 42 47 51 54 58 62 65 68 70 72 75 78 81 84 88 93 101 107 109 115 123 126 128 127 125 125 124 125 121
38 36 36 35 32 30 31 30 30 32 32 33 36 37 38 42 47 50 55 60 64 67 68 69 70 70 71 75 82 88 92 98 101 105 111 119 123 125 124 123 123 123 123 120
37 35 34 33 31 28 29 29 29 31 32 32 35 38 40 43 47 51 56 60 64 67 69 70 70 69 69 69 75 84 90 94 98 103 109 116 119 120 120 121 122 122 122 119
34 33 33 31 29 27 28 30 29 30 32 33 35 38 40 43 47 51 56 60 64 68 70 70 69 70 69 70 72 78 87 93 97 102 107 112 116 119 120 120 120 120 120 119
33 32 32 31 29 28 28 29 29 30 32 33 35 38 40 44 48 52 56 60 64 68 71 71 70 72 72 72 74 78 84 92 98 101 105 109 114 117 118 119 118 117 118 117
32 31 31 31 30 28 28 29 30 30 32 34 35 38 41 44 48 52 56 60 64 67 69 72 72 74 75 75 76 80 83 91 94 101 106 110 113 116 117 117 117 117 117 116
29 28 27 27 27 27 28 29 30 31 32 34 35 37 41 44 47 52 56 59 63 67 70 73 73 75 78 78 81 83 87 91 95 99 104 107 110 112 114 116 118 118 118 118
27 27 25 24 24 25 25 26 28 30 31 33 35 36 40 44 46 50 55 58 62 66 68 70 73 77 81 85 86 87 88 92 97 101 106 106 110 113 114 116 117 118 119 119
25 23 21 20 20 21 22 24 26 28 29 32 34 36 39 43 46 48 53 57 61 64 66 71 74 79 82 86 90 91 91 92 95 100 105 107 110 112 115 117 117 118 119 120
22 21 19 18 18 19 19 21 23 25 27 29 32 35 37 40 44 47 49 54 59 62 65 68 72 77 83 85 89 93 94 95 97 99 102 106 109 113 116 117 118 119 120 121
19 19 18 17 18 18 19 20 21 23 26 28 30 32 35 38 42 45 47 50 54 59 63 66 69 73 77 83 87 91 95 96 96 97 99 102 108 109 115 117 119 120 121 121
18 18 17 16 16 16 17 18 20 21 24 27 29 31 33 36 39 44 46 48 51 55 59 63 67 70 73 77 83 86 90 95 95 96 98 99 101 104 110 115 119 121 122 123
16 17 17 17 16 16 16 17 17 19 21 24 27 29 31 34 36 40 44 47 48 51 54 59 62 66 69 72 77 82 87 90 92 94 96 100 101 99 102 106 113 121 122 123
15 15 15 15 15 15 15 15 16 17 19 21 24 27 29 32 34 36 39 43 47 48 51 54 58 61 65 69 73 77 82 86 88 90 90 94 97 99 101 103 107 111 120 122
13 13 14 14 13 12 11 11 12 14 15 18 20 23 26 29 31 33 36 39 42 46 48 50 53 56 59 63 67 72 76 80 84 86 87 88 89 91 99 104 105 109 111 116
13 13 12 12 11 11 11 10 11 12 14 15 17 20 22 24 28 31 33 35 37 41 45 48 50 51 53 58 62 65 69 74 77 81 84 85 85 86 88 93 101 106 108 110
13 13 13 12 10 10 11 11 11 12 13 14 16 17 20 23 25 28 29 32 34 36 38 42 46 49 50 53 56 60 63 66 71 74 77 81 83 85 86 89 92 96 101 106
14 13 13 13 12 11 10 10 10 12 13 13 15 16 18 21 23 26 27 30 31 34 36 37 40 44 46 49 52 54 57 59 63 66 70 73 76 80 82 85 87 90 94 97
16 15 15 14 14 13 11 10 10 11 11 12 13 16 18 19 20 22 24 27 30 31 33 35 37 39 41 43 46 50 53 55 56 59 62 65 68 72 75 78 81 84 87 90
17 16 16 15 14 13 13 12 11 10 10 10 10 11 15 16 19 20 21 23 26 28 29 32 34 36 38 39 41 44 47 49 52 53 55 58 60 63 66 69 73 76 79 81
Wind_Direction
296 292 291 288 284 280 279 276 273 270 266 262 261 257 252 246 242 239 235 231 227 224 223 221 221 220 218 218 219 220 221 222 224 224 225 225 225 226 226 227 228 228 229 232
295 292 291 288 283 280 277 273 272 268 265 262 259 254 249 242 238 235 231 226 223 220 219 218 218 217 215 216 217 217 220 220 222 223 224 225 225 225 228 227 228 229 229 231
294 292 290 285 284 281 277 274 271 267 264 261 255 251 245 240 234 231 228 223 218 217 217 215 215 214 213 213 214 215 217 218 219 220 222 223 224 224 226 228 228 229 229 230
292 290 288 285 283 281 278 274 270 267 262 257 251 245 240 236 232 227 223 219 216 214 215 214 213 213 213 212 214 214 215 216 218 219 220 222 223 224 225 227 228 230 229 230
292 290 288 283 281 280 277 272 269 264 259 254 249 241 235 232 228 224 221 217 215 213 213 213 213 213 213 214 214 213 216 218 217 217 218 221 222 223 224 226 227 229 230 230
291 289 288 283 281 278 274 270 266 261 255 250 245 237 230 227 225 221 218 216 214 213 213 212 211 212 212 213 213 212 215 215 216 216 218 219 221 222 223 225 226 228 228 231
291 291 286 281 281 276 270 269 263 259 252 245 241 234 227 224 222 219 216 215 214 214 213 213 212 212 212 212 211 211 214 215 216 215 216 217 219 221 223 224 225 228 229 230
291 289 284 282 278 273 269 264 261 256 250 242 237 231 226 222 220 218 215 214 213 214 213 214 214 213 214 214 213 211 212 213 215 215 215 216 219 220 222 224 226 228 230 230
290 286 282 280 277 271 267 262 258 254 249 240 234 230 225 222 220 218 216 214 213 213 214 214 215 215 216 216 214 212 212 213 214 215 215 216 218 220 222 223 225 227 229 229
288 284 280 278 275 268 263 260 253 251 248 240 232 228 224 222 220 218 216 214 214 213 215 215 215 215 215 216 216 214 212 213 214 215 216 217 218 220 223 224 225 227 227 228
285 283 279 276 271 265 258 256 252 247 246 240 233 227 223 222 221 218 217 216 215 215 215 216 215 215 214 213 213 216 214 214 214 216 217 218 219 220 223 224 225 227 228 228
287 283 279 275 270 263 258 255 252 247 243 240 234 228 222 220 221 219 217 218 217 218 216 217 215 215 214 212 212 213 215 217 216 217 218 219 221 222 223 225 225 226 229 230
286 281 277 275 270 263 256 252 250 246 241 239 232 229 224 219 221 220 218 218 219 218 218 217 215 215 214 212 212 213 214 218 219 219 220 221 222 223 224 225 227 228 230 231
288 285 281 276 271 265 257 251 247 245 240 237 234 227 225 222 219 221 221 218 219 218 219 218 216 215 215 213 213 214 214 215 220 221 222 223 224 224 226 226 227 230 231 231
288 285 282 278 271 263 258 249 245 243 240 237 235 229 224 224 221 219 222 221 220 220 220 219 218 216 215 215 215 215 215 216 217 219 223 223 224 226 227 227 229 230 232 234
286 285 284 278 270 262 255 249 244 242 240 237 236 233 227 223 222 221 220 223 223 221 220 220 219 217 217 216 218 218 218 218 219 220 221 223 224 226 228 230 230 231 232 233
291 289 285 279 271 264 255 249 244 242 239 236 236 234 230 226 223 222 221 221 223 224 223 222 221 220 220 218 219 221 222 221 220 221 223 224 226 226 228 230 232 233 234 234
297 295 292 285 277 269 261 252 247 244 240 237 235 234 232 228 226 225 224 223 222 223 225 225 224 224 222 220 220 222 224 225 225 225 225 226 227 228 228 230 232 234 236 237
296 293 290 285 279 273 266 257 249 244 240 238 236 235 233 231 227 226 227 226 225 224 225 226 226 226 226 225 224 224 225 227 228 228 227 228 228 229 231 230 233 235 236 238
299 297 293 289 281 273 268 261 254 247 242 238 237 237 236 233 231 228 226 227 228 227 226 226 227 228 228 227 227 226 226 228 229 230 230 230 231 230 232 233 233 235 237 239
303 302 300 298 292 284 273 264 257 251 245 241 239 237 237 236 234 232 230 228 228 229 229 228 228 228 228 228 228 228 228 229 230 231 232 233 234 233 233 233 235 235 237 240
315 314 313 310 302 295 284 272 261 252 247 244 240 237 237 237 238 236 235 232 230 230 230 230 229 229 229 230 230 230 230 231 231 232 233 234 234 234 234 235 236 237 238 239
332 330 326 324 314 299 288 277 268 260 255 250 245 243 240 238 239 240 241 239 236 233 232 232 232 231 230 230 232 232 232 233 233 233 234 235 235 235 234 235 236 238 240 241
342 336 333 330 327 315 300 290 280 271 262 255 251 246 245 243 242 241 240 241 241 240 237 234 234 234 233 231 231 232 233 233 234 235 236 236 236 236 237 236 236 238 239 241
351 346 342 337 333 330 322 311 296 281 272 263 257 253 247 243 242 243 242 243 242 242 242 240 238 236 235 233 234 234 234 234 234 235 236 238 238 239 239 239 240 240 241 242
0 356 353 347 343 341 334 325 314 303 292 279 267 260 256 252 248 246 241 241 243 242 242 242 242 241 238 236 235 236 237 236 235 235 236 237 238 239 240 242 242 243 243 244
11 5 0 358 354 347 342 338 332 320 308 298 285 269 262 256 253 251 248 244 243 244 242 243 242 241 242 240 236 236 236 237 237 237 238 238 239 240 241 242 243 244 245 246